EW4582 Weather Reports


Display with metric or nautical units.
time (UTC)temp
F
wind
direction
speed
MPH
gust
MPH
rain 1hr
in
rain 24hr
in
rain mn
in
humidity
%
barometer
mb
20260506072644 53 29 0.0 0.0 0.00 0.00 0.00 94 1020.5
20260506072143 53 29 0.0 0.0 0.00 0.00 0.00 94 1020.2
20260506071640 53 29 0.0 0.0 0.00 0.00 0.00 94 1020.5
20260506071137 53 29 0.0 0.0 0.00 0.00 0.00 94 1020.5
20260506070634 53 29 0.0 0.0 0.00 0.00 0.00 93 1020.5
20260506070131 53 29 0.0 0.0 0.00 0.00 0.00 93 1020.2
20260506062109 55 29 0.0 0.0 0.00 0.00 0.00 91 1020.2
20260506061604 55 29 0.0 0.0 0.00 0.00 0.00 91 1020.2
20260506061102 55 29 0.0 0.0 0.00 0.00 0.00 91 1020.2
20260506060601 56 29 0.0 0.0 0.00 0.00 0.00 91 1020.2
20260506051029 57 29 0.0 0.0 0.00 0.00 0.00 88 1019.8
20260506050527 57 29 0.0 0.0 0.00 0.00 0.00 88 1019.8
20260506045018 57 29 0.0 0.0 0.00 0.00 0.00 88 1019.5
20260506044516 57 29 0.0 0.0 0.00 0.00 0.00 88 1019.8
20260506044012 57 29 0.0 0.0 0.00 0.00 0.00 88 1019.8
20260506043509 57 29 0.0 0.0 0.00 0.00 0.00 88 1019.5
20260506043008 57 29 0.0 0.0 0.00 0.00 0.00 88 1019.5
20260506042506 57 29 0.0 0.0 0.00 0.00 0.00 88 1019.5
20260506042004 57 29 0.0 0.0 0.00 0.00 0.00 88 1019.5
20260506041502 57 29 0.0 0.0 0.00 0.00 0.00 88 1019.5
20260506040959 57 29 0.0 0.0 0.00 0.00 0.00 88 1019.5
20260506040456 57 29 0.0 0.0 0.00 0.00 0.00 88 1019.5
20260506035952 57 29 0.0 0.0 0.00 0.00 0.00 88 1019.5
20260506035450 57 29 0.0 0.0 0.00 0.00 0.00 88 1019.5
20260506034946 57 29 0.0 0.0 0.00 0.00 0.00 88 1019.2
20260506034443 57 29 0.0 0.0 0.00 0.00 0.00 88 1019.2
20260506033940 57 29 0.0 0.0 0.00 0.00 0.00 87 1019.2
20260506033438 57 29 0.0 0.0 0.00 0.00 0.00 87 1018.8
20260506032934 57 30 0.0 0.0 0.00 0.00 0.00 87 1018.8
20260506032432 57 29 0.0 0.0 0.00 0.00 0.00 88 1018.8
20260506031928 57 30 0.0 0.0 0.00 0.00 0.00 87 1018.8
20260506031425 57 30 0.0 0.0 0.00 0.00 0.00 87 1018.5
20260506030923 57 29 0.0 0.0 0.00 0.00 0.00 87 1018.5
20260506030421 57 31 0.0 0.0 0.00 0.00 0.00 87 1018.5
20260506025917 57 56 0.0 0.0 0.00 0.00 0.00 87 1018.5
20260506025415 57 56 0.0 0.0 0.00 0.00 0.00 86 1018.1
20260506024911 57 18 0.0 1.0 0.00 0.00 0.00 86 1018.5
20260506024408 57 18 0.0 1.0 0.00 0.00 0.00 86 1018.8
20260506023904 57 27 0.0 0.0 0.00 0.00 0.00 86 1018.5
20260506023401 57 24 1.0 1.0 0.00 0.00 0.00 86 1018.8
20260506022857 57 11 1.0 2.0 0.00 0.00 0.00 86 1018.5
20260506022355 57 12 0.0 0.0 0.00 0.00 0.00 86 1018.5
20260506021853 57 20 0.0 1.0 0.00 0.00 0.00 85 1018.5
20260506021350 57 19 0.0 1.0 0.00 0.00 0.00 85 1018.8
20260506020846 57 33 0.0 1.0 0.00 0.00 0.00 84 1018.5
20260506020345 58 32 0.0 0.0 0.00 0.00 0.00 83 1018.5
20260506015842 58 32 0.0 0.0 0.00 0.00 0.00 83 1018.1
20260506015339 58 47 0.0 0.0 0.00 0.00 0.00 82 1018.5
20260506014836 58 40 0.0 1.0 0.00 0.00 0.00 82 1018.5
20260506014333 58 43 0.0 0.0 0.00 0.00 0.00 82 1018.1
20260506013829 58 27 0.0 1.0 0.00 0.00 0.00 81 1018.1
20260506013327 58 29 0.0 0.0 0.00 0.00 0.00 81 1018.5
20260506012823 58 348 0.0 1.0 0.00 0.00 0.00 80 1018.5
20260506012320 59 43 0.0 0.0 0.00 0.00 0.00 79 1018.5
20260506011818 59 16 0.0 1.0 0.00 0.00 0.00 79 1018.1
20260506011314 59 30 0.0 0.0 0.00 0.00 0.00 78 1018.1
20260506010812 59 13 1.0 1.0 0.00 0.00 0.00 77 1018.1
20260506010309 59 14 1.0 1.0 0.00 0.00 0.00 77 1018.5
20260506005806 59 24 0.0 1.0 0.00 0.00 0.00 77 1018.5
20260506005305 59 356 1.0 1.0 0.00 0.00 0.00 79 1018.1
20260506004759 59 36 0.0 1.0 0.00 0.00 0.00 78 1018.1
20260506004257 59 28 0.0 1.0 0.00 0.00 0.00 79 1018.1
20260506003752 60 77 0.0 0.0 0.00 0.00 0.00 79 1018.1
20260506003249 60 82 0.0 1.0 0.00 0.00 0.00 79 1018.1
20260506002745 60 29 0.0 1.0 0.00 0.00 0.00 79 1018.1
20260506002241 60 52 0.0 0.0 0.00 0.00 0.00 78 1018.5
20260506001737 61 108 0.0 1.0 0.00 0.00 0.00 77 1018.5
20260506001235 61 69 0.0 0.0 0.00 0.00 0.00 76 1018.1
20260506000732 60 137 0.0 0.0 0.00 0.00 0.00 77 1017.8
20260506000229 61 8 1.0 2.0 0.00 0.00 0.00 75 1018.1
20260505235726 61 26 0.0 0.0 0.00 0.00 0.00 76 1018.1
20260505235224 60 37 0.0 0.0 0.00 0.00 0.00 76 1018.1
20260505234721 60 354 1.0 1.0 0.00 0.00 0.00 75 1018.1
20260505234218 62 18 1.0 2.0 0.00 0.00 0.00 74 1018.1
20260505233714 62 40 0.0 1.0 0.00 0.00 0.00 74 1018.1
20260505233213 61 301 1.0 2.0 0.00 0.00 0.00 73 1018.1
20260505232709 62 85 0.0 0.0 0.00 0.00 0.00 72 1018.1
20260505232207 62 11 1.0 1.0 0.00 0.00 0.00 71 1018.1
20260505231703 62 355 1.0 1.0 0.00 0.00 0.00 72 1018.1
20260505231203 62 7 0.0 1.0 0.00 0.00 0.00 70 1018.1
20260505230700 62 38 1.0 2.0 0.00 0.00 0.00 71 1018.1
20260505230156 62 29 0.0 0.0 0.00 0.00 0.00 71 1018.1
20260505225653 64 292 0.0 0.0 0.00 0.00 0.00 71 1018.1
20260505225149 65 19 0.0 0.0 0.00 0.00 0.00 71 1018.1
20260505224645 64 30 1.0 2.0 0.00 0.00 0.00 69 1018.1
20260505224143 65 5 0.0 0.0 0.00 0.00 0.00 70 1018.5
20260505223641 64 0 1.0 1.0 0.00 0.00 0.00 71 1018.1
20260505223136 63 14 0.0 0.0 0.00 0.00 0.00 71 1018.5
20260505222632 62 38 1.0 2.0 0.00 0.00 0.00 73 1018.5
20260505222129 62 329 1.0 1.0 0.00 0.00 0.00 73 1018.5
20260505221626 61 26 1.0 1.0 0.00 0.00 0.00 74 1018.5
20260505221122 61 4 1.0 1.0 0.00 0.00 0.00 76 1018.5
20260505220620 62 249 0.0 1.0 0.00 0.00 0.00 76 1018.5
20260505220118 62 358 0.0 1.0 0.00 0.00 0.00 75 1018.5
20260505215615 61 49 2.0 2.0 0.00 0.00 0.00 75 1018.5
20260505215113 60 329 1.0 2.0 0.00 0.00 0.00 77 1018.5
20260505214611 60 54 0.0 0.0 0.00 0.00 0.00 78 1018.5
20260505214108 60 67 0.0 0.0 0.00 0.00 0.00 78 1018.5
20260505213605 60 341 1.0 1.0 0.00 0.00 0.00 79 1018.8
20260505213101 61 106 0.0 1.0 0.00 0.00 0.00 77 1018.5
20260505212552 60 352 0.0 1.0 0.00 0.00 0.00 78 1018.8
20260505212050 60 46 0.0 0.0 0.00 0.00 0.00 77 1018.8
20260505211546 60 48 0.0 0.0 0.00 0.00 0.00 77 1018.8
20260505211043 60 341 0.0 0.0 0.00 0.00 0.00 76 1018.5
20260505210540 60 359 1.0 1.0 0.00 0.00 0.00 76 1018.5
20260505210037 60 26 0.0 1.0 0.00 0.00 0.00 75 1018.5
20260505205535 61 46 0.0 1.0 0.00 0.00 0.00 75 1018.5
20260505205032 60 357 1.0 2.0 0.00 0.00 0.00 76 1018.5
20260505204530 60 73 0.0 0.0 0.00 0.00 0.00 77 1018.8
20260505204027 60 357 0.0 1.0 0.00 0.00 0.00 76 1018.5
20260505203523 60 24 0.0 0.0 0.00 0.00 0.00 76 1018.5
20260505203021 60 281 0.0 0.0 0.00 0.00 0.00 77 1018.5
20260505202516 60 16 0.0 0.0 0.00 0.00 0.00 77 1018.8
20260505202012 60 26 0.0 1.0 0.00 0.00 0.00 76 1018.8
20260505201510 60 43 0.0 0.0 0.00 0.00 0.00 78 1018.8
20260505201007 60 331 2.0 2.0 0.00 0.00 0.00 75 1018.8
20260505200505 61 28 0.0 0.0 0.00 0.00 0.00 74 1018.5
20260505200001 60 3 0.0 0.0 0.00 0.00 0.00 74 1018.5
20260505195458 60 54 0.0 1.0 0.00 0.00 0.00 74 1018.5
20260505194955 61 83 0.0 0.0 0.00 0.00 0.00 74 1018.5
20260505194453 60 63 0.0 0.0 0.00 0.00 0.00 76 1018.8
20260505193952 60 72 0.0 1.0 0.00 0.00 0.00 77 1018.5
20260505193450 60 8 0.0 1.0 0.00 0.00 0.00 76 1018.8
20260505192947 60 46 0.0 0.0 0.00 0.00 0.00 77 1018.8
20260505192446 60 355 0.0 0.0 0.00 0.00 0.00 77 1018.8
20260505191943 60 45 0.0 0.0 0.00 0.00 0.00 76 1018.8
20260505191442 60 340 0.0 0.0 0.00 0.00 0.00 77 1019.2
20260505190938 60 30 1.0 1.0 0.00 0.00 0.00 77 1018.8
20260505190433 60 79 1.0 1.0 0.00 0.00 0.00 77 1019.2
20260505185929 60 1 1.0 2.0 0.00 0.00 0.00 78 1019.2
20260505185427 60 70 1.0 1.0 0.00 0.00 0.00 78 1018.8
20260505184923 59 52 0.0 0.0 0.00 0.00 0.00 80 1018.8
20260505184420 59 80 0.0 0.0 0.00 0.00 0.00 79 1018.8
20260505183916 60 41 0.0 0.0 0.00 0.00 0.00 79 1018.8
20260505183413 59 330 0.0 0.0 0.00 0.00 0.00 79 1018.8
20260505182910 59 26 0.0 1.0 0.00 0.00 0.00 80 1018.8
20260505182407 59 32 0.0 0.0 0.00 0.00 0.00 79 1018.5
20260505181903 60 26 1.0 1.0 0.00 0.00 0.00 79 1018.8
20260505181401 59 9 0.0 0.0 0.00 0.00 0.00 79 1018.5
20260505180857 59 356 2.0 3.0 0.00 0.00 0.00 78 1018.5
20260505180354 59 36 0.0 0.0 0.00 0.00 0.00 78 1018.5
20260505175850 59 328 1.0 1.0 0.00 0.00 0.00 78 1018.5
20260505175347 59 320 0.0 0.0 0.00 0.00 0.00 79 1018.5
20260505174843 59 36 0.0 1.0 0.00 0.00 0.00 79 1018.5
20260505174341 58 53 0.0 0.0 0.00 0.00 0.00 79 1018.5
20260505173836 58 48 0.0 0.0 0.00 0.00 0.00 80 1018.1
20260505173333 57 37 0.0 0.0 0.00 0.00 0.00 80 1018.1
20260505172830 57 40 0.0 0.0 0.00 0.00 0.00 80 1018.1
20260505172328 57 40 0.0 0.0 0.00 0.00 0.00 82 1018.1
20260505171827 57 40 0.0 0.0 0.00 0.00 0.00 82 1018.5
20260505171325 57 40 0.0 0.0 0.00 0.00 0.00 83 1018.5
20260505170821 56 40 0.0 0.0 0.00 0.00 0.00 83 1018.5
20260505170318 57 40 0.0 0.0 0.00 0.00 0.00 83 1018.5
20260505165814 57 51 0.0 0.0 0.00 0.00 0.00 83 1018.5
20260505165309 56 51 0.0 0.0 0.00 0.00 0.00 82 1018.5
20260505164805 56 51 0.0 0.0 0.00 0.00 0.00 84 1018.1
20260505164303 57 56 0.0 1.0 0.00 0.00 0.00 84 1018.1
20260505163801 57 61 0.0 0.0 0.00 0.00 0.00 85 1017.8
20260505163259 56 52 0.0 0.0 0.00 0.00 0.00 84 1017.8
20260505162756 57 52 0.0 0.0 0.00 0.00 0.00 84 1017.8
20260505162253 57 68 0.0 0.0 0.00 0.00 0.00 84 1017.8
20260505161750 57 41 0.0 0.0 0.00 0.00 0.00 84 1017.8
20260505161247 57 41 0.0 0.0 0.00 0.00 0.00 84 1017.8
20260505160744 56 41 0.0 0.0 0.00 0.00 0.00 83 1017.8
20260505160242 56 41 0.0 0.0 0.00 0.00 0.00 83 1017.5
20260505153221 56 41 0.0 0.0 0.00 0.00 0.00 84 1017.5
20260505152718 56 41 0.0 0.0 0.00 0.00 0.00 84 1017.5
20260505152214 56 40 0.0 0.0 0.00 0.00 0.00 83 1017.8
20260505151709 56 41 0.0 0.0 0.00 0.00 0.00 83 1017.5
20260505151207 56 47 0.0 0.0 0.00 0.00 0.00 82 1017.5
20260505150703 56 46 0.0 0.0 0.00 0.00 0.00 81 1017.5
20260505150201 56 47 0.0 0.0 0.00 0.00 0.00 82 1017.5
20260505140633 52 37 0.0 0.0 0.00 0.00 0.00 91 1016.8
20260505140131 52 37 0.0 0.0 0.00 0.00 0.00 91 1017.1
20260505124543 51 37 0.0 0.0 0.00 0.00 0.00 91 1016.8
20260505124040 51 37 0.0 0.0 0.00 0.00 0.00 91 1016.8
20260505123536 52 37 0.0 0.0 0.00 0.00 0.00 91 1017.1
20260505123033 51 37 0.0 0.0 0.00 0.00 0.00 91 1016.8
20260505122530 52 37 0.0 0.0 0.00 0.00 0.00 91 1016.8
20260505122027 52 37 0.0 0.0 0.00 0.00 0.00 91 1017.1
20260505121523 52 37 0.0 0.0 0.00 0.00 0.00 91 1016.8
20260505121020 52 37 0.0 0.0 0.00 0.00 0.00 91 1016.8
20260505120516 52 37 0.0 0.0 0.00 0.00 0.00 91 1016.8
20260505120011 52 37 0.0 0.0 0.00 0.00 0.00 91 1016.8
20260505115506 52 37 0.0 0.0 0.00 0.00 0.00 91 1016.8
20260505115004 52 37 0.0 0.0 0.00 0.00 0.00 90 1016.8
20260505114501 52 37 0.0 0.0 0.00 0.00 0.00 90 1016.8
20260505113958 52 37 0.0 0.0 0.00 0.00 0.00 90 1016.8
20260505113454 52 37 0.0 0.0 0.00 0.00 0.00 90 1016.4
20260505112949 52 37 0.0 0.0 0.00 0.00 0.00 90 1016.4
20260505112442 52 37 0.0 0.0 0.00 0.00 0.00 90 1016.8
20260505111938 52 37 0.0 0.0 0.00 0.00 0.00 90 1016.8
20260505111432 52 37 0.0 0.0 0.00 0.00 0.00 90 1016.8
20260505110929 52 37 0.0 0.0 0.00 0.00 0.00 90 1016.8
20260505110426 52 37 0.0 0.0 0.00 0.00 0.00 90 1016.8
20260505101857 53 37 0.0 0.0 0.00 0.00 0.00 87 1016.8
20260505101351 53 36 0.0 0.0 0.00 0.00 0.00 86 1016.8
20260505100848 53 36 0.0 0.0 0.00 0.00 0.00 86 1016.8
20260505100344 53 36 0.0 0.0 0.00 0.00 0.00 85 1016.8
20260505095840 53 29 0.0 0.0 0.00 0.00 0.00 86 1016.8
20260505095338 53 30 0.0 0.0 0.00 0.00 0.00 86 1016.8
20260505094834 53 29 0.0 0.0 0.00 0.00 0.00 87 1017.1
20260505094331 52 33 0.0 0.0 0.00 0.00 0.00 89 1016.8
20260505093826 52 34 0.0 0.0 0.00 0.00 0.00 90 1016.8
20260505093324 52 347 0.0 0.0 0.00 0.00 0.00 91 1016.8
20260505092821 52 79 0.0 0.0 0.00 0.00 0.00 92 1016.8
20260505092319 52 79 0.0 0.0 0.00 0.00 0.00 92 1017.1
20260505091816 52 79 0.0 0.0 0.00 0.00 0.00 93 1016.8
20260505091314 52 80 0.0 0.0 0.00 0.00 0.00 93 1017.1
20260505090812 52 80 0.0 0.0 0.00 0.00 0.00 94 1017.1
20260505090310 52 80 0.0 0.0 0.00 0.00 0.00 94 1017.1
20260505085807 52 79 0.0 0.0 0.00 0.00 0.00 94 1017.1
20260505085305 52 79 0.0 0.0 0.00 0.00 0.00 94 1017.1
20260505084802 52 79 0.0 0.0 0.00 0.00 0.00 94 1017.1
20260505084301 52 79 0.0 0.0 0.00 0.00 0.00 94 1017.5
20260505083757 52 79 0.0 0.0 0.00 0.00 0.00 94 1017.1
20260505083254 52 79 0.0 0.0 0.00 0.00 0.00 94 1017.5
20260505082750 52 79 0.0 0.0 0.00 0.00 0.00 94 1017.5
20260505082248 52 79 0.0 0.0 0.00 0.00 0.00 94 1017.5
20260505081743 52 79 0.0 0.0 0.00 0.00 0.00 94 1017.5
20260505081241 52 79 0.0 0.0 0.00 0.00 0.00 94 1017.5
20260505080738 52 79 0.0 0.0 0.00 0.00 0.00 94 1017.5
20260505080233 52 79 0.0 0.0 0.00 0.00 0.00 94 1017.5
20260505075729 52 79 0.0 0.0 0.00 0.00 0.00 94 1017.5
20260505075226 52 79 0.0 0.0 0.00 0.00 0.00 94 1017.5
20260505074724 51 79 0.0 0.0 0.00 0.00 0.00 95 1017.5
20260505074221 51 79 0.0 0.0 0.00 0.00 0.00 95 1017.1
20260505073718 51 79 0.0 0.0 0.00 0.00 0.00 95 1017.5
20260505073216 51 79 0.0 0.0 0.00 0.00 0.00 95 1017.5